Weather History for Walhalla, ND

Change the Weather History Date:

Friday, May 31, 2013

  Actual Average (KGAF) Record (KGAF)
Temperature  
Mean Temperature 52 °F -  
Max Temperature 57 °F 76 °F 98 °F (1986)
Min Temperature 46 °F 50 °F 33 °F (1964)
Degree Days  
Heating Degree Days 14    
Growing Degree Days 2 (Base 50)    
Moisture  
Dew Point 53 °F    
Average Humidity 100    
Maximum Humidity 100    
Minimum Humidity 100    
Precipitation  
Precipitation 1.55 in - - ()
Sea Level Pressure  
Sea Level Pressure 29.55 in    
Wind  
Wind Speed 14 mph (NNE)    
Max Wind Speed 26 mph    
Max Gust Speed 37 mph    
Visibility 6 miles    
Events Rain    
Averages and records for this station are not official NWS values.
T = Trace of Precipitation, MM = Missing Value Source: NWS Daily Summary

Daily Weather History Graph

Daily Weather History Graph

Search for Another Location

Airport:

Trip Planner

Search our weather history database for the weather conditions in past years. The results will help you decide how hot, cold, wet, or windy it might be!

Date:

Astronomy

May. 31, 2013 Rise Set
Actual Time 5:32 AM CDT 9:26 PM CDT
Civil Twilight 4:51 AM CDT 10:07 PM CDT
Nautical Twilight 3:55 AM CDT 11:04 PM CDT
Astronomical Twilight 2:25 AM CDT 12:36 AM CDT
Moon 1:36 AM CDT (5/31) 1:17 PM CDT (5/31)
Length of Visible Light 17h 15m
Length of Day
15h 53m
Waning Gibbous, 51% of the Moon is Illuminated
May 31
Waning Gibbous
May 31
Last Quarter
Jun 8
New
Jun 16
First Quarter
Jun 23
Full

Hourly Weather History & Observations

Time (CDT) Temp. Windchill Dew Point Humidity Pressure Visibility Wind Dir Wind Speed Gust Speed Precip Events Conditions
12:15 AM 57.2 °F - 57.2 °F 100% 29.51 in 3.0 mi NE 12.7 mph - N/A Rain Light Rain
12:35 AM 57.2 °F - 57.2 °F 100% 29.51 in 4.0 mi NE 9.2 mph - N/A   Overcast
12:55 AM 57.2 °F - 57.2 °F 100% 29.50 in 3.0 mi NE 9.2 mph - N/A   Overcast
1:15 AM 55.4 °F - 55.4 °F 100% 29.50 in 5.0 mi NE 11.5 mph 16.1 mph N/A   Overcast
1:35 AM 55.4 °F - 55.4 °F 100% 29.50 in 3.0 mi NE 12.7 mph - N/A   Overcast
1:55 AM 55.4 °F - 55.4 °F 100% 29.50 in 2.5 mi NNE 10.4 mph - N/A   Overcast
2:15 AM 55.4 °F - 55.4 °F 100% 29.49 in 3.0 mi NNE 10.4 mph - N/A   Overcast
2:35 AM 55.4 °F - 55.4 °F 100% 29.49 in 7.0 mi North 5.8 mph - N/A   Overcast
2:55 AM 55.4 °F - 55.4 °F 100% 29.48 in 7.0 mi NNE 11.5 mph - N/A   Overcast
3:15 AM 55.4 °F - 55.4 °F 100% 29.47 in 4.0 mi North 12.7 mph 16.1 mph N/A   Overcast
3:35 AM 53.6 °F - 53.6 °F 100% 29.46 in 7.0 mi North 11.5 mph - N/A Rain Light Rain
3:55 AM 53.6 °F - 53.6 °F 100% 29.46 in 7.0 mi North 11.5 mph - N/A   Overcast
4:15 AM 53.6 °F - 53.6 °F 100% 29.46 in 10.0 mi NNE 11.5 mph 18.4 mph N/A   Overcast
4:35 AM 53.6 °F - 53.6 °F 100% 29.45 in 5.0 mi NNE 15.0 mph 19.6 mph 0.03 in Rain Light Rain
4:55 AM 53.6 °F - 53.6 °F 100% 29.45 in 4.0 mi NE 15.0 mph 19.6 mph 0.22 in Rain Rain
5:15 AM 53.6 °F - 53.6 °F 100% 29.44 in 2.5 mi NE 11.5 mph - 0.13 in Rain Rain
5:35 AM 53.6 °F - 53.6 °F 100% 29.44 in 3.0 mi NE 9.2 mph 16.1 mph 0.19 in Rain Rain
5:55 AM 53.6 °F - 53.6 °F 100% 29.44 in 3.0 mi NE 11.5 mph 20.7 mph 0.25 in Rain Rain
6:15 AM 53.6 °F - 53.6 °F 100% 29.43 in 1.5 mi NE 11.5 mph 19.6 mph 0.11 in Rain Heavy Rain
6:35 AM 53.6 °F - 53.6 °F 100% 29.43 in 2.0 mi NNE 10.4 mph 19.6 mph 0.21 in Rain Rain
6:55 AM 53.6 °F - 53.6 °F 100% 29.43 in 3.0 mi NE 10.4 mph - 0.32 in Rain Light Rain
7:15 AM 53.6 °F - 53.6 °F 100% 29.43 in 2.0 mi NE 11.5 mph 20.7 mph 0.04 in Rain Rain
7:35 AM 53.6 °F - 53.6 °F 100% 29.43 in 2.0 mi NE 9.2 mph - 0.09 in Rain Rain
7:55 AM 53.6 °F - 53.6 °F 100% 29.43 in 2.5 mi NE 8.1 mph - 0.15 in Rain Light Rain
8:15 AM 53.6 °F - 53.6 °F 100% 29.43 in 1.5 mi NNE 8.1 mph - 0.08 in Rain Rain
8:35 AM 53.6 °F - 53.6 °F 100% 29.44 in 1.5 mi NNE 9.2 mph - 0.19 in Rain Heavy Rain
8:55 AM 53.6 °F - 53.6 °F 100% 29.45 in 2.0 mi NNE 8.1 mph - 0.28 in Rain Rain
9:15 AM 53.6 °F - 53.6 °F 100% 29.45 in 2.5 mi NNE 9.2 mph - 0.03 in Rain Rain
9:35 AM 53.6 °F - 53.6 °F 100% 29.45 in 5.0 mi NNE 11.5 mph 16.1 mph 0.06 in Rain Light Rain
9:55 AM 53.6 °F - 53.6 °F 100% 29.45 in 5.0 mi NNE 10.4 mph - 0.07 in Rain Light Rain
10:15 AM 53.6 °F - 53.6 °F 100% 29.45 in 4.0 mi NE 9.2 mph 16.1 mph N/A Rain Light Rain
10:35 AM 53.6 °F - 53.6 °F 100% 29.46 in 5.0 mi NNE 11.5 mph 16.1 mph 0.01 in Rain Light Rain
10:55 AM 53.6 °F - 53.6 °F 100% 29.46 in 9.0 mi NE 10.4 mph - 0.02 in Rain Light Rain
11:15 AM 53.6 °F - 53.6 °F 100% 29.47 in 10.0 mi NE 10.4 mph 17.3 mph N/A   Overcast
11:35 AM 53.6 °F - 53.6 °F 100% 29.48 in 10.0 mi NNE 10.4 mph 19.6 mph N/A   Overcast
11:55 AM 53.6 °F - 53.6 °F 100% 29.49 in 10.0 mi NE 15.0 mph 21.9 mph N/A   Overcast
12:15 PM 53.6 °F - 53.6 °F 100% 29.49 in 10.0 mi NE 15.0 mph 23.0 mph N/A   Overcast
12:35 PM 53.6 °F - 53.6 °F 100% 29.50 in 5.0 mi NNE 15.0 mph 21.9 mph N/A   Overcast
12:55 PM 53.6 °F - 53.6 °F 100% 29.51 in 9.0 mi NNE 16.1 mph 21.9 mph N/A   Overcast
1:15 PM 53.6 °F - 53.6 °F 100% 29.51 in 3.0 mi NE 13.8 mph 23.0 mph N/A   Overcast
1:35 PM 53.6 °F - 53.6 °F 100% 29.52 in 5.0 mi NNE 13.8 mph 20.7 mph N/A   Overcast
1:55 PM 53.6 °F - 53.6 °F 100% 29.52 in 10.0 mi NNE 19.6 mph 23.0 mph N/A   Overcast
2:15 PM 53.6 °F - 53.6 °F 100% 29.52 in 7.0 mi NNE 15.0 mph 26.5 mph N/A Rain Light Rain
2:35 PM 53.6 °F - 53.6 °F 100% 29.53 in 9.0 mi NNE 15.0 mph 21.9 mph N/A   Overcast
2:55 PM 55.4 °F - 55.4 °F 100% 29.54 in 8.0 mi NNE 19.6 mph 26.5 mph N/A   Overcast
3:15 PM 55.4 °F - 55.4 °F 100% 29.56 in 9.0 mi NNE 15.0 mph 26.5 mph N/A   Overcast
3:35 PM 53.6 °F - 53.6 °F 100% 29.56 in 5.0 mi North 17.3 mph 27.6 mph N/A Rain Light Rain
3:55 PM 53.6 °F - 53.6 °F 100% 29.57 in 4.0 mi NNE 19.6 mph 28.8 mph N/A   Overcast
4:15 PM 53.6 °F - 53.6 °F 100% 29.58 in 9.0 mi North 23.0 mph 31.1 mph N/A   Overcast
4:35 PM 53.6 °F - 53.6 °F 100% 29.59 in 10.0 mi NNE 24.2 mph 31.1 mph N/A Rain Light Rain
4:55 PM 53.6 °F - 53.6 °F 100% 29.61 in 10.0 mi North 21.9 mph 32.2 mph N/A   Overcast
5:15 PM 53.6 °F - 53.6 °F 100% 29.62 in 10.0 mi NNE 21.9 mph 26.5 mph N/A   Overcast
5:35 PM 51.8 °F - 51.8 °F 100% 29.62 in 10.0 mi North 23.0 mph 31.1 mph N/A   Overcast
5:55 PM 51.8 °F - 51.8 °F 100% 29.63 in 10.0 mi North 20.7 mph 33.4 mph N/A   Overcast
6:15 PM 51.8 °F - 51.8 °F 100% 29.64 in 10.0 mi NNE 25.3 mph 36.8 mph N/A   Overcast
6:35 PM 50.0 °F - 50.0 °F 100% 29.65 in 9.0 mi North 25.3 mph 32.2 mph N/A   Overcast
6:55 PM 50.0 °F - 50.0 °F 100% 29.67 in 10.0 mi North 24.2 mph 32.2 mph N/A   Overcast
7:15 PM 50.0 °F - 50.0 °F 100% 29.67 in 9.0 mi North 24.2 mph 32.2 mph N/A Rain Light Rain
7:35 PM 48.2 °F - 48.2 °F 100% 29.69 in 1.5 mi North 20.7 mph 29.9 mph N/A Rain Light Rain
7:55 PM 48.2 °F - 48.2 °F 100% 29.70 in 1.5 mi North 23.0 mph 29.9 mph 0.03 in Rain Light Rain
8:15 PM 48.2 °F - 48.2 °F 100% 29.70 in 2.5 mi North 20.7 mph 28.8 mph 0.01 in Rain Light Rain
8:35 PM 48.2 °F - 48.2 °F 100% 29.71 in 1.2 mi North 21.9 mph 32.2 mph 0.03 in Rain Light Rain
8:55 PM 48.2 °F - 48.2 °F 100% 29.72 in 4.0 mi North 20.7 mph 28.8 mph 0.05 in Rain Light Rain
9:15 PM 48.2 °F - 48.2 °F 100% 29.73 in 5.0 mi NNE 26.5 mph 35.7 mph N/A Rain Light Rain
9:35 PM 48.2 °F - 48.2 °F 100% 29.74 in 1.5 mi North 20.7 mph 31.1 mph 0.03 in Rain Rain
9:55 PM 48.2 °F - 48.2 °F 100% 29.75 in 2.5 mi North 19.6 mph 29.9 mph 0.11 in Rain Rain
10:15 PM 48.2 °F - 48.2 °F 100% 29.76 in 5.0 mi North 18.4 mph 27.6 mph 0.03 in Rain Rain
10:35 PM 48.2 °F - 48.2 °F 100% 29.77 in 7.0 mi North 20.7 mph 26.5 mph 0.05 in Rain Light Rain
10:55 PM 46.4 °F 39.5 °F 46.4 °F 100% 29.78 in 9.0 mi NNE 17.3 mph 25.3 mph 0.05 in Rain Light Rain
11:15 PM 46.4 °F 39.5 °F 46.4 °F 100% 29.78 in 7.0 mi NNE 17.3 mph 27.6 mph N/A Rain Light Rain
11:35 PM 46.4 °F 38.7 °F 46.4 °F 100% 29.79 in 5.0 mi North 20.7 mph 29.9 mph N/A Rain Light Rain
11:55 PM 48.2 °F - 48.2 °F 100% 29.80 in 10.0 mi North 19.6 mph 28.8 mph N/A   Mostly Cloudy